sat.trackr.live / text

‹ back to catalog

STARLINK-11560 [DTC]

NORAD 62917 · 2025-027L

PAYLOAD ACTIVE UNKNOWN

§ Identity

Operator
Country
US
Launch date
2025-02-08
Launch site
AFETR
Launch vehicle
Mass (kg)
RCS (m²)

Purposes: comms

External: N2YO · Heavens-Above · Gunter

§ Orbital elements

Epoch: 2026-05-24T23:54:53.856288Z

Period
91.67 min
Inclination
43.0000°
Eccentricity
0.0001262
Mean motion
15.70906105 rev/d
Perigee alt
355.5 km
Apogee alt
357.2 km
Semi-major
6,734.4 km
B*
1.6168e-3
RAAN
247.6694°
Arg perigee
293.4215°
Mean anomaly
66.6520°
Rev number
7,515

§ Raw data

STARLINK-11560 [DTC]1 62917U 25027L   26144.99645667  .00213000  00000+0  16168-2 0  99992 62917  43.0000 247.6694 0001262 293.4215  66.6520 15.70906105 75156

JSON: /api/v1/satellites/62917 · /tle

For live sub-satellite position, see the globe view (requires WebGL).

§ Visibility from observer

Set your observer location to see the next 7 days of passes ≥ 10°. The values pass through the URL so the page stays shareable.

No JS? Fill the form by hand. The geolocation button needs JavaScript.